TimeCST,TemperatureF,Dew PointF,Humidity,Sea Level PressureIn,VisibilityMPH,Wind Direction,Wind SpeedMPH,Gust SpeedMPH,PrecipitationIn,Events,Conditions,WindDirDegrees,DateUTC
12:15 AM,9.9,6.4,86,30.14,10.0,East,3.5,-,N/A,,Clear,90,2012-12-27 06:15:00
12:35 AM,9.9,6.6,87,30.14,10.0,Calm,Calm,-,N/A,,Clear,0,2012-12-27 06:35:00
12:55 AM,9.5,6.6,88,30.12,10.0,Calm,Calm,-,N/A,,Clear,0,2012-12-27 06:55:00
1:15 AM,9.7,6.8,88,30.12,10.0,Calm,Calm,-,N/A,,Clear,0,2012-12-27 07:15:00
1:35 AM,9.9,7.3,90,30.12,10.0,Calm,Calm,-,N/A,,Clear,0,2012-12-27 07:35:00
1:55 AM,9.9,7.7,91,30.12,10.0,Calm,Calm,-,N/A,,Scattered Clouds,0,2012-12-27 07:55:00
2:15 AM,10.2,8.2,92,30.12,10.0,East,3.5,-,N/A,,Mostly Cloudy,80,2012-12-27 08:15:00
2:35 AM,11.3,9.0,90,30.12,10.0,East,5.8,-,N/A,,Overcast,90,2012-12-27 08:35:00
2:55 AM,11.3,8.8,90,30.12,10.0,East,3.5,-,N/A,,Overcast,90,2012-12-27 08:55:00
3:15 AM,11.8,9.3,90,30.11,10.0,East,4.6,-,N/A,,Overcast,90,2012-12-27 09:15:00
3:55 AM,12.2,10.0,91,30.11,10.0,East,4.6,-,N/A,,Overcast,90,2012-12-27 09:55:00
4:15 AM,13.1,10.8,90,30.11,10.0,East,3.5,-,N/A,,Overcast,100,2012-12-27 10:15:00
4:35 AM,13.5,10.9,90,30.10,10.0,East,4.6,-,N/A,,Overcast,90,2012-12-27 10:35:00
4:55 AM,14.0,11.7,90,30.09,10.0,East,3.5,-,N/A,,Overcast,100,2012-12-27 10:55:00
5:15 AM,14.7,12.2,90,30.07,10.0,East,6.9,-,N/A,,Overcast,90,2012-12-27 11:15:00
5:35 AM,15.4,12.9,90,30.10,10.0,Calm,Calm,-,N/A,,Overcast,0,2012-12-27 11:35:00
5:55 AM,16.3,13.5,88,30.10,10.0,ESE,3.5,-,N/A,,Overcast,120,2012-12-27 11:55:00
6:15 AM,16.5,13.6,88,30.10,10.0,East,5.8,-,N/A,Snow,Light Snow,100,2012-12-27 12:15:00
6:35 AM,17.1,14.0,88,30.09,2.5,ESE,6.9,-,N/A,Snow,Light Snow,110,2012-12-27 12:35:00
6:55 AM,17.6,15.4,91,30.09,3.0,ESE,9.2,-,N/A,Snow,Light Snow,110,2012-12-27 12:55:00
7:15 AM,17.6,15.8,93,30.07,2.0,East,9.2,-,N/A,Snow,Light Snow,100,2012-12-27 13:15:00
7:35 AM,18.1,16.3,93,30.06,2.5,ESE,11.5,-,N/A,Snow,Light Snow,110,2012-12-27 13:35:00
7:55 AM,19.0,16.7,91,30.06,7.0,ESE,11.5,-,N/A,Snow,Light Snow,110,2012-12-27 13:55:00
8:15 AM,19.2,16.5,89,30.07,10.0,ESE,12.7,-,N/A,,Overcast,110,2012-12-27 14:15:00
8:35 AM,19.0,16.7,91,30.06,2.0,East,9.2,-,N/A,Snow,Light Snow,90,2012-12-27 14:35:00
8:55 AM,18.9,16.7,91,30.06,4.0,East,8.1,-,N/A,Snow,Light Snow,90,2012-12-27 14:55:00
9:15 AM,19.2,17.2,92,30.06,1.2,East,9.2,-,N/A,Snow,Light Snow,90,2012-12-27 15:15:00
9:35 AM,19.4,17.6,93,30.06,2.0,East,8.1,-,N/A,Snow,Light Snow,90,2012-12-27 15:35:00
9:55 AM,19.4,17.6,93,30.06,1.2,East,9.2,-,N/A,Snow,Light Snow,90,2012-12-27 15:55:00
10:35 AM,20.1,18.0,91,30.07,2.5,East,9.2,-,N/A,Snow,Light Snow,100,2012-12-27 16:35:00
10:55 AM,20.7,18.1,90,30.07,10.0,East,9.2,-,N/A,,Overcast,90,2012-12-27 16:55:00
11:15 AM,21.0,18.3,89,30.06,10.0,East,9.2,-,N/A,,Overcast,90,2012-12-27 17:15:00
11:35 AM,21.7,18.7,88,30.06,10.0,East,9.2,-,N/A,,Overcast,80,2012-12-27 17:35:00
11:55 AM,22.1,18.9,87,30.04,4.0,East,9.2,-,N/A,Snow,Light Snow,90,2012-12-27 17:55:00
12:15 PM,22.1,18.9,87,30.03,10.0,East,9.2,-,N/A,Snow,Light Snow,90,2012-12-27 18:15:00
12:35 PM,22.1,18.9,87,30.01,10.0,East,9.2,-,N/A,,Overcast,80,2012-12-27 18:35:00
12:55 PM,22.1,18.9,87,30.00,5.0,East,10.4,-,N/A,Snow,Light Snow,90,2012-12-27 18:55:00
1:15 PM,22.5,19.0,87,29.99,10.0,East,9.2,-,N/A,,Overcast,80,2012-12-27 19:15:00
1:35 PM,22.6,19.2,87,29.99,10.0,East,8.1,-,N/A,,Overcast,80,2012-12-27 19:35:00
1:55 PM,22.8,19.4,87,29.98,10.0,East,9.2,-,N/A,,Overcast,80,2012-12-27 19:55:00
2:15 PM,22.5,19.4,88,29.96,10.0,ENE,11.5,-,N/A,,Overcast,70,2012-12-27 20:15:00
2:35 PM,22.5,19.8,89,29.96,10.0,ENE,8.1,-,N/A,,Overcast,70,2012-12-27 20:35:00
2:55 PM,22.6,19.9,89,29.97,10.0,ENE,9.2,-,N/A,,Overcast,70,2012-12-27 20:55:00
3:15 PM,22.8,20.3,90,29.96,10.0,ENE,8.1,-,N/A,,Overcast,70,2012-12-27 21:15:00
3:35 PM,22.6,20.1,90,29.97,10.0,ENE,9.2,-,N/A,,Overcast,70,2012-12-27 21:35:00
3:55 PM,22.8,20.3,90,29.96,10.0,East,8.1,-,N/A,,Overcast,80,2012-12-27 21:55:00
4:15 PM,22.8,20.3,90,29.96,10.0,ENE,10.4,-,N/A,,Overcast,70,2012-12-27 22:15:00
4:35 PM,22.8,20.3,90,29.97,10.0,East,5.8,-,N/A,,Overcast,80,2012-12-27 22:35:00
4:55 PM,22.8,20.3,90,29.97,10.0,ENE,4.6,-,N/A,,Overcast,70,2012-12-27 22:55:00
5:15 PM,22.6,20.3,91,29.97,10.0,East,3.5,-,N/A,,Overcast,80,2012-12-27 23:15:00
5:35 PM,22.6,20.5,91,29.98,10.0,East,6.9,-,N/A,,Overcast,80,2012-12-27 23:35:00
5:55 PM,22.8,20.5,91,29.98,10.0,East,5.8,-,N/A,,Overcast,80,2012-12-27 23:55:00
6:15 PM,22.8,20.7,91,29.99,10.0,East,6.9,-,N/A,,Overcast,90,2012-12-28 00:15:00
6:35 PM,22.6,20.8,93,29.99,10.0,ENE,5.8,-,N/A,,Overcast,60,2012-12-28 00:35:00
7:15 PM,22.6,20.8,93,30.00,10.0,ENE,5.8,-,N/A,,Overcast,70,2012-12-28 01:15:00
7:35 PM,22.5,20.3,91,30.00,10.0,ENE,5.8,-,N/A,,Overcast,70,2012-12-28 01:35:00
7:55 PM,22.1,20.3,93,30.00,10.0,ENE,6.9,-,N/A,,Overcast,70,2012-12-28 01:55:00
8:15 PM,22.1,20.1,92,30.00,10.0,ENE,3.5,-,N/A,,Overcast,60,2012-12-28 02:15:00
8:35 PM,21.9,19.8,91,29.99,10.0,ENE,5.8,-,N/A,,Overcast,70,2012-12-28 02:35:00
8:55 PM,21.7,19.4,91,29.99,10.0,ENE,4.6,-,N/A,,Overcast,60,2012-12-28 02:55:00
9:15 PM,21.7,19.6,91,29.99,10.0,ENE,4.6,-,N/A,,Overcast,60,2012-12-28 03:15:00
9:35 PM,21.6,19.4,91,29.99,10.0,Calm,Calm,-,N/A,,Overcast,0,2012-12-28 03:35:00
9:55 PM,21.6,19.4,91,29.99,10.0,Calm,Calm,-,N/A,,Overcast,0,2012-12-28 03:55:00
10:15 PM,21.7,19.8,92,29.99,10.0,Calm,Calm,-,N/A,,Overcast,0,2012-12-28 04:15:00
10:35 PM,21.7,19.8,92,29.99,10.0,NE,3.5,-,N/A,,Overcast,50,2012-12-28 04:35:00
10:55 PM,21.6,19.8,93,29.99,7.0,Calm,Calm,-,N/A,,Overcast,0,2012-12-28 04:55:00
11:35 PM,21.2,19.4,93,30.00,10.0,Calm,Calm,-,N/A,,Overcast,0,2012-12-28 05:35:00
11:55 PM,21.2,19.4,93,29.99,7.0,Calm,Calm,-,N/A,,Overcast,0,2012-12-28 05:55:00